This demonstration page uses our WeatherBlox Daily Observations layout. Learn more.

Left ArrowRight Arrow

38.20091, -84.87328

Hourly Observations for December 6, 2022

Temp ( °F °C ) Dew Point ( °F °C ) Humidity (%) Winds ( mph kmh ) Pressure ( in mb ) Visibility ( mi km ) Precip ( " mm )
12:31 am 00:31 Cloudy with Mist and Fog 47 8.3 46 7.8 97 97 S 6 9 29.96 1014 3 5 0.00 0.00
12:38 am 00:38 Cloudy with Mist and Fog 47 8.3 46 7.8 97 97 S 5 7 29.96 1014 3 4 0.00 0.00
12:53 am 00:53 Cloudy with Mist and Fog 47 8.3 47 8.3 100 100 SSE 3 6 29.95 1014 3 4 0.00 0.00
1:12 am 01:12 Cloudy with Mist and Fog 47 8.3 46 7.8 97 97 S 3 6 29.96 1014 3 5 0.00 0.00
1:20 am 01:20 Cloudy with Mist and Fog 47 8.3 46 7.8 97 97 S 3 6 29.96 1014 2 3 0.00 0.00
1:53 am 01:53 Cloudy with Mist and Fog 48 8.9 47 8.3 96 96 Calm 29.94 1014 3 4 0.00 0.00
3:31 am 03:31 Cloudy with Mist and Fog 48 8.9 47 8.3 96 96 Calm 29.96 1015 2 3 0.00 0.00
3:42 am 03:42 Cloudy with Mist and Fog 49 9.4 48 8.9 97 97 Calm 29.96 1015 3 4 0.00 0.00
3:50 am 03:50 Cloudy with Mist and Fog 48 9 46 8 93 93 Calm 29.96 1015 2 3 0.00 0.00
3:53 am 03:53 Cloudy with Mist and Fog 49 9.4 47 8.3 93 93 Calm 29.95 1014 2 3 0.00 0.00
4:02 am 04:02 Cloudy with Mist and Fog 49 9.4 47 8.3 93 93 ESE 3 6 29.95 1014 2 3 0.00 0.00
4:53 am 04:53 Cloudy with Mist and Fog 49 9.4 48 8.9 97 97 Calm 29.95 1014 1 2 0.00 0.00
5:14 am 05:14 Cloudy with Mist and Fog 49 9.4 48 8.9 97 97 Calm 29.95 1014 2 3 0.00 0.00
5:18 am 05:18 Cloudy with Mist and Fog 49 9.4 48 8.9 97 97 SE 3 6 29.95 1014 2 3 0.00 0.00
5:27 am 05:27 Cloudy with Mist and Fog 49 9.4 48 8.9 97 97 SSE 3 6 29.95 1014 2 3 0.00 0.00
5:40 am 05:40 Cloudy with Mist and Fog 49 9.4 49 9.4 100 100 SE 3 6 29.95 1014 3 4 0.00 0.00
5:53 am 05:53 Cloudy with Mist and Fog 50 10 49 9.4 96 96 SSE 5 7 29.94 1014 3 4 0.00 0.00
6:01 am 06:01 Cloudy with Mist and Fog 50 10 49 9.4 96 96 SSE 6 9 29.95 1014 3 5 0.00 0.00
6:09 am 06:09 Cloudy with Mist and Fog 50 10 49 9.4 96 96 SSE 5 7 29.95 1014 2 3 0.00 0.00
6:17 am 06:17 Cloudy with Mist and Fog 50 10 49 9.4 96 96 SSE 3 6 29.95 1014 2 3 0.00 0.00
6:53 am 06:53 Cloudy with Mist and Fog 50 10 50 10 100 100 Calm 29.96 1014 2 3 0.00 0.00
7:14 am 07:14 Cloudy with Mist and Fog 50 10 50 10 100 100 Calm 29.97 1015 3 4 0.01 0.25
7:29 am 07:29 Cloudy with Light Rain 50 10 50 10 100 100 E 3 6 29.97 1015 2 3 0.01 0.25
7:37 am 07:37 Cloudy with Mist and Fog 50 10 50 10 100 100 ESE 3 6 29.97 1015 3 5 0.01 0.25
7:53 am 07:53 Cloudy with Mist and Fog 50 10 50 10 100 100 ESE 3 6 29.95 1014 5 8 0.01 0.25
8:02 am 08:02 Cloudy with Mist and Fog 51 10.6 50 10 96 96 SE 3 6 29.96 1014 6 10 0.00 0.00
8:53 am 08:53 Cloudy with Mist and Fog 51 10.6 50 10 96 96 Calm 29.97 1015 6 10 0.00 0.00
9:22 am 09:22 Cloudy 51 10.6 50 10 96 96 E 3 6 29.97 1015 7 11 0.00 0.00
9:39 am 09:39 Cloudy with Mist and Fog 52 11.1 51 10.6 97 97 Calm 29.98 1015 6 10 0.00 0.00
9:53 am 09:53 Cloudy 52 11.1 51 10.6 97 97 ESE 3 6 29.97 1015 7 11 0.00 0.00
10:53 am 10:53 Cloudy 54 12.2 52 11.1 93 93 Calm 29.97 1015 9 14 0.00 0.00
11:53 am 11:53 Cloudy with Mist and Fog 56 13.3 54 12.2 93 93 S 5 7 29.96 1015 6 10 0.00 0.00
12:15 pm 12:15 Cloudy with Mist and Fog 56 13.3 55 12.8 97 97 S 5 7 29.96 1015 3 4 0.00 0.00
12:29 pm 12:29 Cloudy with Mist and Fog 56 13.3 55 12.8 97 97 S 5 7 29.96 1015 2 3 0.00 0.00
12:46 pm 12:46 Cloudy with Mist and Fog 57 13.9 56 13.3 96 96 S 5 7 29.96 1014 2 2 0.00 0.00
12:53 pm 12:53 Cloudy with Mist and Fog 57 13.9 56 13.3 96 96 SSW 5 7 29.96 1015 2 2 0.00 0.00
1:16 pm 13:16 Cloudy with Mist and Fog 58 14.4 57 13.9 97 97 SSW 7 11 29.96 1014 3 4 0.00 0.00
1:31 pm 13:31 Cloudy with Mist and Fog 58 14.4 57 13.9 97 97 SW 8 13 29.96 1014 3 5 0.00 0.00
1:53 pm 13:53 Cloudy 59 15 57 13.9 93 93 SW 9 15 29.96 1015 10 16 0.00 0.00
2:11 pm 14:11 Cloudy 59 15 57 13.9 93 93 SW 10 17 29.95 1014 10 16 0.00 0.00
2:53 pm 14:53 Cloudy 60 15.6 58 14.4 93 93 WSW 8 13 29.96 1015 10 16 0.00 0.00
3:02 pm 15:02 Cloudy 60 15.6 58 14.4 93 93 SW 8 13 29.96 1015 10 16 0.00 0.00
3:20 pm 15:20 Cloudy 60 15.6 58 14.4 93 93 SW 8 13 29.97 1015 10 16 0.00 0.00
3:53 pm 15:53 Cloudy 61 16.1 58 14.4 90 90 SW 6 9 29.98 1015 10 16 0.00 0.00
4:21 pm 16:21 Cloudy 60 15.6 58 14.4 93 93 WSW 3 6 29.98 1015 10 16 0.00 0.00
4:41 pm 16:41 Cloudy 60 15.6 57 13.9 90 90 Calm 29.98 1015 10 16 0.00 0.00
4:53 pm 16:53 Cloudy 60 15.6 57 13.9 90 90 Calm 29.99 1016 10 16 0.00 0.00
5:31 pm 17:31 Cloudy 58 14.4 57 13.9 97 97 Calm 30.00 1016 10 16 0.00 0.00
5:53 pm 17:53 Cloudy with Mist and Fog 58 14.4 56 13.3 93 93 NNW 5 7 30.01 1016 6 10 0.00 0.00
6:07 pm 18:07 Cloudy 58 14.4 57 13.9 97 97 Calm 30.01 1016 10 16 0.00 0.00
6:34 pm 18:34 Cloudy 58 14.4 57 13.9 97 97 Calm 30.00 1016 8 13 0.00 0.00
6:53 pm 18:53 Cloudy with Mist and Fog 58 14.4 57 13.9 97 97 SE 3 6 30.00 1016 5 8 0.00 0.00
7:53 pm 19:53 Cloudy 61 16.1 58 14.4 90 90 S 8 13 29.99 1016 10 16 0.00 0.00
8:53 pm 20:53 Cloudy with Nearby Thunderstorms 61 16.1 59 15 93 93 S 9 15 29.98 1015 10 16 0.00 0.00
9:13 pm 21:13 Cloudy with Nearby Thunderstorms 61 16.1 60 15.6 97 97 SSE 7 11 29.98 1015 5 8 0.03 0.76
9:22 pm 21:22 Cloudy with Strong Thunderstorms 61 16.1 60 15.6 97 97 S 3 6 29.97 1015 3 4 0.10 2.54
9:32 pm 21:32 Cloudy with Thunderstorms 61 16.1 60 15.6 97 97 ESE 5 7 29.96 1015 6 10 0.11 2.79
9:53 pm 21:53 Cloudy with Light Rain 62 16.7 60 15.6 93 93 S 9 15 29.97 1015 6 10 0.14 3.56
10:11 pm 22:11 Cloudy with Light Rain 63 17.2 61 16.1 93 93 SW 9 15 29.99 1016 7 11 0.01 0.25
10:53 pm 22:53 Cloudy with Light Rain 63 17.2 61 16.1 93 93 S 7 11 29.99 1016 9 14 0.02 0.51
11:03 pm 23:03 Cloudy with Thunderstorms 63 17.2 61 16.1 93 93 S 7 11 29.99 1016 6 10 0.02 0.51
11:18 pm 23:18 Cloudy 63 17.2 62 16.7 97 97 S 8 13 29.99 1016 10 16 0.02 0.51
11:53 pm 23:53 Cloudy 65 18.3 63 17.2 93 93 SSW 14 22 30.00 1016 10 16 0.02 0.51

Powered by AerisWeather